Regional Weather Roundup
Issued by NWS

Home | Current Version | Previous Version | Text Only | Print | Product List | Glossary Off
Versions: 1 2 3 4 5 6 7 8 9 10 11 12 13 14 15 16 17 18 19 20 21 22 23 24 25 26 27 28 29 30 31 32 33 34 35 36 37 38 39 40 41 42 43 44 45 46 47 48 49 50

497
ASUS43 KFSD 240002
RWRSD

WEATHER ROUNDUP FOR SOUTH DAKOTA
NATIONAL WEATHER SERVICE SIOUX FALLS SD
700 PM CDT MON MAY 23 2016

NOTE: "FAIR" INDICATES FEW OR NO CLOUDS BELOW 12,000 FEET WITH NO
SIGNIFICANT WEATHER AND/OR OBSTRUCTIONS TO VISIBILITY.


SDZ001>005-009-010-012>017-240100-
NORTHWEST AND NORTH CENTRAL SOUTH DAKOTA

CITY           SKY/WX    TMP DP  RH WIND       PRES   REMARKS
BUFFALO          N/A     72  33  24 NW14      29.64R
FAITH            N/A     73  38  27 S7        29.68F
MOBRIDGE       SUNNY     76  48  37 SE9       29.66S
$$

SDZ012>016-024>037-041>051-057-063-072>074-240100-
SOUTHWEST AND SOUTH CENTRAL SOUTH DAKOTA

CITY           SKY/WX    TMP DP  RH WIND       PRES   REMARKS
RAPID CTY ARPT SUNNY     74  24  15 SW15G26   29.70F
PIERRE         MOSUNNY   76  45  33 S9        29.67S
CUSTER         MOSUNNY   63  22  20 SW9G22    29.81F
ELLSWORTH AFB  CLOUDY    75  26  16 W10       29.69F
PHILIP         SUNNY     76  32  20 SW13      29.68S
PINE RIDGE     MOSUNNY   72  28  19 W14G20    29.76S
WINNER         FAIR      78  47  33 S5        29.70F
$$

SDZ004>011-016>023-039-040-240100-
NORTHEAST SOUTH DAKOTA

CITY           SKY/WX    TMP DP  RH WIND       PRES   REMARKS
ABERDEEN       PTSUNNY   80  50  34 S6        29.68S
WATERTOWN      CLOUDY    74  56  53 S7        29.72F
BROOKINGS      CLOUDY    71  60  68 SW7       29.74R
SISSETON         N/A     79  53  40 SW8       29.67F
$$

SDZ017-020-022-023-036>040-048>070-240100-
SOUTHEAST SOUTH DAKOTA

CITY           SKY/WX    TMP DP  RH WIND       PRES   REMARKS
SIOUX FALLS    CLOUDY    72  59  63 SW5       29.74R
HURON          MOSUNNY   76  51  41 MISG      29.69S
MITCHELL       SUNNY     78  58  49 S7        29.70F
YANKTON          N/A     75  57  53 E3        29.72R VSB 3/4
$$

ABBREVIATIONS USED IN REMARKS
   TC - TEMPERATURE IN CELSIUS
  WCI - WIND CHILL INDEX
   HX - HEAT INDEX
  VSB - VISIBILITY





USA.gov is the U.S. government's official web portal to all federal, state and local government web resources and services.